FYI1648 EFHK-LICC

Flight info

Callsign FYI1648
Flight time 3h 15m
Altitude 36000
Route KOIVU Y123 LARTI DCT LUTAL DCT BERIL DCT BOKSU M857 SUWGI DCT TITUV M985 EVINA DCT LIGDI DCT SKARY DCT VEBAL DCT SIRMI DCT MOLUX DCT NERAR DCT PELEN DCT UXUTA
Aircraft A320/M-SDE3FGHIRWY/LB1

Departure

Time 2026-04-23 13:16
Airport Helsinki Vantaa Airport (EFHK)

Arrival

Time 2026-04-23 16:31
Airport Catania-Fontanarossa Airport (LICC)
Time Latitude Longitude Altitude Speed Heading
2026-04-23 12:58 60.31975 24.96892 166 ft 0 kts 218°
2026-04-23 13:06 60.31978 24.96897 166 ft 3 kts 218°
2026-04-23 13:07 60.31999 24.96930 166 ft 4 kts 218°
2026-04-23 13:07 60.32016 24.96957 166 ft 3 kts 214°
2026-04-23 13:07 60.32038 24.96968 166 ft 4 kts 161°
2026-04-23 13:07 60.32059 24.96951 166 ft 4 kts 142°
2026-04-23 13:08 60.32070 24.96935 166 ft 0 kts 152°
2026-04-23 13:10 60.32041 24.96967 166 ft 10 kts 151°
2026-04-23 13:10 60.31980 24.97033 166 ft 9 kts 153°
2026-04-23 13:11 60.31930 24.97132 165 ft 17 kts 96°
2026-04-23 13:11 60.31864 24.97306 162 ft 17 kts 153°
2026-04-23 13:11 60.31760 24.97413 160 ft 18 kts 153°
2026-04-23 13:11 60.31625 24.97547 158 ft 22 kts 153°
2026-04-23 13:12 60.31491 24.97693 156 ft 21 kts 151°
2026-04-23 13:12 60.31348 24.97836 157 ft 24 kts 153°
2026-04-23 13:12 60.31210 24.97980 158 ft 21 kts 153°
2026-04-23 13:12 60.31086 24.98106 158 ft 19 kts 153°
2026-04-23 13:13 60.30971 24.98213 158 ft 17 kts 158°
2026-04-23 13:13 60.30848 24.98319 159 ft 19 kts 157°
2026-04-23 13:13 60.30733 24.98420 158 ft 17 kts 156°
2026-04-23 13:13 60.30663 24.98580 157 ft 10 kts 93°
2026-04-23 13:14 60.30670 24.98642 156 ft 7 kts 67°
2026-04-23 13:14 60.30694 24.98733 157 ft 5 kts 58°
2026-04-23 13:14 60.30710 24.98783 158 ft 7 kts 55°
2026-04-23 13:14 60.30757 24.98777 158 ft 8 kts 335°
2026-04-23 13:15 60.30787 24.98747 158 ft 0 kts 333°
2026-04-23 13:15 60.30789 24.98745 158 ft 4 kts 333°
2026-04-23 13:15 60.31036 24.98492 155 ft 75 kts 333°
2026-04-23 13:15 60.31680 24.97833 153 ft 131 kts 333°
2026-04-23 13:16 60.32598 24.96881 401 ft 154 kts 334°
2026-04-23 13:16 60.33536 24.95849 1184 ft 152 kts 327°
2026-04-23 13:16 60.34320 24.94429 1975 ft 154 kts 314°
2026-04-23 13:16 60.34959 24.92489 2231 ft 179 kts 298°
2026-04-23 13:17 60.35310 24.89905 2504 ft 203 kts 280°
2026-04-23 13:17 60.35179 24.86870 2818 ft 235 kts 258°
2026-04-23 13:17 60.34435 24.83711 3202 ft 261 kts 244°
2026-04-23 13:17 60.33487 24.80486 3955 ft 269 kts 244°
2026-04-23 13:18 60.32567 24.77213 4910 ft 267 kts 245°
2026-04-23 13:18 60.31667 24.73920 5731 ft 271 kts 245°
2026-04-23 13:18 60.30760 24.70489 6348 ft 281 kts 244°
2026-04-23 13:18 60.29506 24.67389 7022 ft 293 kts 221°
2026-04-23 13:19 60.27699 24.65427 7764 ft 301 kts 200°
2026-04-23 13:19 60.25619 24.64546 8453 ft 307 kts 191°
2026-04-23 13:19 60.23499 24.63815 9218 ft 310 kts 192°
2026-04-23 13:19 60.21355 24.63040 9862 ft 317 kts 193°
2026-04-23 13:20 60.19137 24.62188 10208 ft 335 kts 193°
2026-04-23 13:20 60.16775 24.61253 10361 ft 358 kts 194°
2026-04-23 13:20 60.14278 24.60259 10731 ft 371 kts 193°
2026-04-23 13:20 60.11720 24.59257 11291 ft 378 kts 193°
2026-04-23 13:21 60.09109 24.58302 11876 ft 385 kts 189°
2026-04-23 13:21 60.06408 24.58067 12437 ft 392 kts 177°
2026-04-23 13:21 60.03687 24.58790 13002 ft 398 kts 167°
2026-04-23 13:21 60.00954 24.59918 13607 ft 403 kts 167°
2026-04-23 13:22 59.98192 24.61041 14126 ft 408 kts 167°
2026-04-23 13:22 59.95392 24.62171 14635 ft 412 kts 167°
2026-04-23 13:22 59.92566 24.63306 15158 ft 416 kts 167°
2026-04-23 13:22 59.89709 24.64448 15651 ft 421 kts 167°
2026-04-23 13:23 59.86816 24.65456 16165 ft 425 kts 174°
2026-04-23 13:23 59.83850 24.65624 16667 ft 428 kts 185°
2026-04-23 13:23 59.80894 24.64835 17163 ft 429 kts 196°
2026-04-23 13:23 59.77980 24.63449 17662 ft 433 kts 197°
2026-04-23 13:24 59.75039 24.62055 18158 ft 436 kts 197°
2026-04-23 13:24 59.72112 24.60677 18588 ft 440 kts 197°
2026-04-23 13:24 59.69121 24.59277 19016 ft 443 kts 197°
2026-04-23 13:24 59.66108 24.57880 19448 ft 447 kts 196°
2026-04-23 13:25 59.63057 24.56567 19863 ft 451 kts 195°
2026-04-23 13:25 59.59968 24.55339 20240 ft 454 kts 194°
2026-04-23 13:25 59.56853 24.54158 20652 ft 457 kts 194°
2026-04-23 13:25 59.53718 24.52984 21061 ft 460 kts 194°
2026-04-23 13:26 59.50560 24.51788 21465 ft 464 kts 195°
2026-04-23 13:26 59.47387 24.50566 21865 ft 466 kts 195°
2026-04-23 13:26 59.44192 24.49317 22264 ft 470 kts 195°
2026-04-23 13:26 59.40979 24.48052 22642 ft 473 kts 195°
2026-04-23 13:27 59.37744 24.46777 23030 ft 476 kts 195°
2026-04-23 13:27 59.34489 24.45496 23404 ft 479 kts 195°
2026-04-23 13:27 59.31215 24.44212 23728 ft 482 kts 195°
2026-04-23 13:27 59.27919 24.42930 24057 ft 484 kts 195°
2026-04-23 13:28 59.24609 24.41648 24395 ft 486 kts 195°
2026-04-23 13:28 59.21291 24.40365 24711 ft 488 kts 195°
2026-04-23 13:28 59.17955 24.39073 25041 ft 489 kts 195°
2026-04-23 13:28 59.14607 24.37779 25364 ft 491 kts 195°
2026-04-23 13:29 59.11245 24.36488 25706 ft 494 kts 194°
2026-04-23 13:29 59.07867 24.35193 25977 ft 497 kts 194°
2026-04-23 13:29 59.04468 24.33895 26279 ft 499 kts 194°
2026-04-23 13:29 59.01057 24.32593 26548 ft 500 kts 194°
2026-04-23 13:30 58.97633 24.31285 26866 ft 502 kts 194°
2026-04-23 13:30 58.94198 24.29976 27165 ft 504 kts 194°
2026-04-23 13:30 58.90798 24.28681 27461 ft 506 kts 194°
2026-04-23 13:30 58.87345 24.27366 27754 ft 507 kts 194°
2026-04-23 13:31 58.83871 24.26049 28047 ft 509 kts 194°
2026-04-23 13:31 58.80390 24.24733 28336 ft 511 kts 194°
2026-04-23 13:31 58.76896 24.23412 28613 ft 513 kts 194°
2026-04-23 13:31 58.73387 24.22088 28858 ft 514 kts 194°
2026-04-23 13:32 58.69874 24.20770 29138 ft 515 kts 194°
2026-04-23 13:32 58.66348 24.19451 29401 ft 517 kts 194°
2026-04-23 13:32 58.62811 24.18128 29651 ft 518 kts 194°
2026-04-23 13:32 58.59269 24.16808 29898 ft 520 kts 194°
2026-04-23 13:33 58.55707 24.15485 30129 ft 521 kts 194°
2026-04-23 13:33 58.52147 24.14169 30409 ft 521 kts 194°
2026-04-23 13:33 58.48591 24.12856 30679 ft 521 kts 194°
2026-04-23 13:33 58.45030 24.11536 30898 ft 521 kts 194°
2026-04-23 13:34 58.41475 24.10216 31141 ft 521 kts 194°
2026-04-23 13:34 58.37917 24.08896 31401 ft 521 kts 194°
2026-04-23 13:34 58.34356 24.07582 31664 ft 521 kts 194°
2026-04-23 13:34 58.30796 24.06274 31921 ft 521 kts 195°
2026-04-23 13:35 58.27232 24.04970 32179 ft 521 kts 195°
2026-04-23 13:35 58.23677 24.03680 32455 ft 521 kts 195°
2026-04-23 13:35 58.20116 24.02392 32707 ft 521 kts 195°
2026-04-23 13:35 58.16555 24.01100 32900 ft 522 kts 195°
2026-04-23 13:36 58.12983 23.99797 33095 ft 523 kts 195°
2026-04-23 13:36 58.09410 23.98493 33334 ft 523 kts 195°
2026-04-23 13:36 58.05835 23.97189 33591 ft 523 kts 195°
2026-04-23 13:36 58.02302 23.95908 33878 ft 524 kts 195°
2026-04-23 13:37 57.98673 23.94599 34101 ft 524 kts 195°
2026-04-23 13:37 57.95097 23.93312 34318 ft 524 kts 195°
2026-04-23 13:37 57.91566 23.92044 34535 ft 523 kts 194°
2026-04-23 13:37 57.87991 23.90776 34702 ft 523 kts 194°
2026-04-23 13:38 57.84405 23.89557 34887 ft 524 kts 194°
2026-04-23 13:38 57.80818 23.88381 35083 ft 524 kts 193°
2026-04-23 13:38 57.77226 23.87229 35286 ft 523 kts 193°
2026-04-23 13:38 57.73637 23.86083 35476 ft 523 kts 193°
2026-04-23 13:39 57.70054 23.84925 35670 ft 522 kts 193°
2026-04-23 13:39 57.67639 23.84138 35801 ft 522 kts 193°
2026-04-23 13:39 57.64065 23.82963 35939 ft 521 kts 193°
2026-04-23 13:40 57.56921 23.80620 35959 ft 522 kts 193°
2026-04-23 13:40 57.49819 23.78307 35965 ft 522 kts 193°
2026-04-23 13:41 57.42667 23.75994 35966 ft 522 kts 193°
2026-04-23 13:41 57.35514 23.73691 35967 ft 522 kts 193°
2026-04-23 13:42 57.28358 23.71408 35946 ft 522 kts 193°
2026-04-23 13:42 57.21194 23.69115 35952 ft 523 kts 193°
2026-04-23 13:43 57.14022 23.66828 35952 ft 523 kts 193°
2026-04-23 13:43 57.06850 23.64553 35959 ft 523 kts 193°
2026-04-23 13:44 56.99673 23.62281 35947 ft 523 kts 193°
2026-04-23 13:44 56.92489 23.60012 35938 ft 524 kts 193°
2026-04-23 13:45 56.85303 23.57767 35958 ft 524 kts 193°
2026-04-23 13:45 56.78108 23.55536 35917 ft 524 kts 193°
2026-04-23 13:46 56.70917 23.53300 35932 ft 525 kts 193°
2026-04-23 13:46 56.63714 23.51048 35943 ft 525 kts 193°
2026-04-23 13:47 56.56502 23.48806 35952 ft 526 kts 193°
2026-04-23 13:47 56.49290 23.46599 35961 ft 526 kts 192°
2026-04-23 13:48 56.42117 23.44417 35961 ft 526 kts 193°
2026-04-23 13:48 56.34893 23.42250 35963 ft 527 kts 191°
2026-04-23 13:49 56.27604 23.40685 35964 ft 528 kts 187°
2026-04-23 13:49 56.20282 23.39555 35936 ft 528 kts 187°
2026-04-23 13:50 56.12963 23.38352 35928 ft 528 kts 188°
2026-04-23 13:50 56.05656 23.36974 35960 ft 528 kts 188°
2026-04-23 13:51 55.98362 23.35566 35943 ft 527 kts 188°
2026-04-23 13:51 55.91062 23.34203 35910 ft 527 kts 188°
2026-04-23 13:52 55.83808 23.32878 35913 ft 527 kts 188°
2026-04-23 13:52 55.76506 23.31553 35918 ft 528 kts 188°
2026-04-23 13:53 55.69205 23.30229 35902 ft 528 kts 188°
2026-04-23 13:53 55.61900 23.28894 35913 ft 527 kts 188°
2026-04-23 13:54 55.54598 23.27577 35925 ft 527 kts 188°
2026-04-23 13:54 55.47297 23.26265 35926 ft 527 kts 188°
2026-04-23 13:55 55.39994 23.24956 35895 ft 527 kts 187°
2026-04-23 13:55 55.32691 23.23646 35908 ft 528 kts 187°
2026-04-23 13:56 55.25384 23.22339 35968 ft 528 kts 187°
2026-04-23 13:56 55.18080 23.21044 35950 ft 528 kts 187°
2026-04-23 13:57 55.10777 23.19767 35913 ft 527 kts 187°
2026-04-23 13:57 55.03474 23.18483 35918 ft 527 kts 187°
2026-04-23 13:58 54.96227 23.17202 35919 ft 527 kts 187°
2026-04-23 13:58 54.88927 23.15921 35919 ft 527 kts 187°
2026-04-23 13:59 54.81629 23.14654 35906 ft 527 kts 187°
2026-04-23 13:59 54.74329 23.13384 35909 ft 527 kts 187°
2026-04-23 14:00 54.68262 23.12332 35916 ft 527 kts 187°
2026-04-23 14:00 54.59737 23.10872 35889 ft 527 kts 187°
2026-04-23 14:01 54.52443 23.09631 35909 ft 527 kts 187°
2026-04-23 14:01 54.45151 23.08376 35959 ft 526 kts 187°
2026-04-23 14:02 54.37868 23.07116 35947 ft 526 kts 187°
2026-04-23 14:02 54.30631 23.05407 35914 ft 523 kts 197°
2026-04-23 14:03 54.23824 23.01285 35917 ft 518 kts 205°
2026-04-23 14:03 54.17110 22.96774 35920 ft 519 kts 205°
2026-04-23 14:04 54.10390 22.92296 35922 ft 519 kts 205°
2026-04-23 14:04 54.03997 22.87014 35910 ft 511 kts 216°
2026-04-23 14:05 53.97899 22.80800 35915 ft 511 kts 216°
2026-04-23 14:05 53.91780 22.74628 35928 ft 511 kts 216°
2026-04-23 14:06 53.85659 22.68474 35933 ft 511 kts 216°
2026-04-23 14:06 53.79542 22.62318 35938 ft 511 kts 216°
2026-04-23 14:07 53.73420 22.56193 35941 ft 511 kts 216°
2026-04-23 14:07 53.64232 22.47036 35920 ft 512 kts 216°
2026-04-23 14:08 53.58099 22.40948 35932 ft 512 kts 216°
2026-04-23 14:08 53.51959 22.34890 35939 ft 512 kts 215°
2026-04-23 14:09 53.45822 22.28849 35950 ft 512 kts 215°
2026-04-23 14:09 53.39683 22.22812 35930 ft 511 kts 215°
2026-04-23 14:10 53.33544 22.16790 35952 ft 511 kts 215°
2026-04-23 14:10 53.27400 22.10797 35950 ft 511 kts 215°
2026-04-23 14:11 53.21247 22.04832 35943 ft 511 kts 215°
2026-04-23 14:11 53.15092 21.98881 35953 ft 511 kts 214°
2026-04-23 14:12 53.08943 21.92926 35951 ft 511 kts 214°
2026-04-23 14:12 53.02794 21.86996 35950 ft 511 kts 214°
2026-04-23 14:13 52.96636 21.81094 35932 ft 511 kts 214°
2026-04-23 14:13 52.90476 21.75205 35944 ft 511 kts 214°
2026-04-23 14:14 52.84316 21.69341 35956 ft 511 kts 214°
2026-04-23 14:14 52.78151 21.63490 35965 ft 511 kts 214°
2026-04-23 14:15 52.72027 21.57691 35963 ft 511 kts 213°
2026-04-23 14:15 52.65859 21.51866 35971 ft 511 kts 213°
2026-04-23 14:16 52.59685 21.46055 35980 ft 511 kts 213°
2026-04-23 14:16 52.53509 21.40279 35964 ft 511 kts 213°
2026-04-23 14:17 52.47342 21.34520 35976 ft 510 kts 213°
2026-04-23 14:17 52.41180 21.28771 35982 ft 509 kts 213°
2026-04-23 14:18 52.35021 21.23049 35986 ft 509 kts 213°
2026-04-23 14:18 52.28862 21.17352 35975 ft 508 kts 212°
2026-04-23 14:19 52.22702 21.11675 35984 ft 508 kts 212°
2026-04-23 14:19 52.16544 21.06018 35986 ft 508 kts 212°
2026-04-23 14:20 52.10393 21.00373 35988 ft 508 kts 212°
2026-04-23 14:20 52.04241 20.94743 35978 ft 507 kts 212°
2026-04-23 14:21 51.98088 20.89133 35985 ft 507 kts 212°
2026-04-23 14:21 51.91936 20.83545 35991 ft 507 kts 212°
2026-04-23 14:22 51.85780 20.77968 35986 ft 507 kts 211°
2026-04-23 14:22 51.79664 20.72451 35990 ft 507 kts 211°
2026-04-23 14:23 51.73466 20.66874 35988 ft 507 kts 211°
2026-04-23 14:23 51.67342 20.61391 35996 ft 507 kts 211°
2026-04-23 14:24 51.61182 20.55876 35998 ft 507 kts 211°
2026-04-23 14:24 51.55016 20.50377 35999 ft 507 kts 211°
2026-04-23 14:25 51.48849 20.44900 36004 ft 507 kts 211°
2026-04-23 14:25 51.42671 20.39444 35998 ft 506 kts 211°
2026-04-23 14:26 51.36476 20.34075 36015 ft 506 kts 208°
2026-04-23 14:26 51.30126 20.29183 36015 ft 507 kts 206°
2026-04-23 14:27 51.23711 20.24521 36003 ft 506 kts 206°
2026-04-23 14:27 51.17320 20.19810 36017 ft 506 kts 206°
2026-04-23 14:28 51.10967 20.15014 36022 ft 505 kts 206°
2026-04-23 14:28 51.04628 20.10199 36021 ft 505 kts 206°
2026-04-23 14:29 50.98328 20.05468 36021 ft 504 kts 206°
2026-04-23 14:29 50.91979 20.00754 36034 ft 503 kts 205°
2026-04-23 14:30 50.85637 19.96062 36029 ft 503 kts 206°
2026-04-23 14:30 50.79300 19.91367 36028 ft 503 kts 205°
2026-04-23 14:31 50.72971 19.86693 36039 ft 502 kts 205°
2026-04-23 14:31 50.66644 19.82031 36033 ft 502 kts 205°
2026-04-23 14:32 50.61348 19.78128 36033 ft 501 kts 205°
2026-04-23 14:32 50.55025 19.73499 36037 ft 501 kts 205°
2026-04-23 14:33 50.48747 19.68919 36032 ft 500 kts 205°
2026-04-23 14:33 50.42391 19.64302 36041 ft 500 kts 205°
2026-04-23 14:34 50.36085 19.59723 36040 ft 499 kts 205°
2026-04-23 14:34 50.29831 19.55182 36057 ft 498 kts 205°
2026-04-23 14:35 50.23512 19.50749 36054 ft 498 kts 203°
2026-04-23 14:35 50.17156 19.46458 36050 ft 497 kts 203°
2026-04-23 14:36 50.10812 19.42200 36060 ft 496 kts 203°
2026-04-23 14:36 50.04496 19.37907 36064 ft 495 kts 203°
2026-04-23 14:37 49.98200 19.33617 36068 ft 494 kts 203°
2026-04-23 14:37 49.91911 19.29350 36063 ft 493 kts 202°
2026-04-23 14:38 49.85628 19.25116 36068 ft 492 kts 202°
2026-04-23 14:38 49.79361 19.20906 36068 ft 491 kts 202°
2026-04-23 14:39 49.73096 19.16703 36071 ft 490 kts 202°
2026-04-23 14:39 49.66838 19.12527 36067 ft 489 kts 202°
2026-04-23 14:40 49.60590 19.08367 36061 ft 489 kts 202°
2026-04-23 14:40 49.54346 19.04222 36065 ft 489 kts 202°
2026-04-23 14:41 49.48104 19.00085 36060 ft 488 kts 202°
2026-04-23 14:41 49.41830 18.96090 36060 ft 488 kts 199°
2026-04-23 14:42 49.35418 18.92700 36032 ft 487 kts 196°
2026-04-23 14:42 49.28955 18.89552 36055 ft 487 kts 196°
2026-04-23 14:43 49.22516 18.86324 36058 ft 487 kts 197°
2026-04-23 14:43 49.16110 18.83000 36061 ft 486 kts 198°
2026-04-23 14:44 49.09710 18.79652 36061 ft 486 kts 198°
2026-04-23 14:44 49.03353 18.76370 36058 ft 485 kts 197°
2026-04-23 14:45 48.96911 18.73082 36053 ft 485 kts 197°
2026-04-23 14:45 48.90560 18.69849 36042 ft 485 kts 197°
2026-04-23 14:46 48.84171 18.66597 36059 ft 484 kts 198°
2026-04-23 14:46 48.77794 18.63355 36060 ft 483 kts 198°
2026-04-23 14:47 48.71430 18.60121 36069 ft 482 kts 198°
2026-04-23 14:47 48.65077 18.56894 36056 ft 480 kts 198°
2026-04-23 14:48 48.58756 18.53702 36070 ft 478 kts 198°
2026-04-23 14:48 48.52456 18.50543 36061 ft 476 kts 198°
2026-04-23 14:49 48.46168 18.47402 36054 ft 476 kts 198°
2026-04-23 14:49 48.39894 18.44276 36071 ft 474 kts 198°
2026-04-23 14:50 48.33639 18.41156 36067 ft 473 kts 198°
2026-04-23 14:50 48.27402 18.38046 36069 ft 472 kts 198°
2026-04-23 14:51 48.21169 18.34944 36073 ft 471 kts 198°
2026-04-23 14:51 48.14955 18.31864 36066 ft 470 kts 198°
2026-04-23 14:52 48.08788 18.28827 36072 ft 469 kts 198°
2026-04-23 14:52 48.02586 18.25774 36071 ft 469 kts 198°
2026-04-23 14:53 47.96386 18.22744 36073 ft 469 kts 198°
2026-04-23 14:53 47.90191 18.19709 36067 ft 469 kts 198°
2026-04-23 14:54 47.84001 18.16674 36071 ft 468 kts 198°
2026-04-23 14:54 47.77810 18.13656 36071 ft 468 kts 198°
2026-04-23 14:55 47.71619 18.10651 36067 ft 468 kts 198°
2026-04-23 14:55 47.65426 18.07647 36069 ft 468 kts 198°
2026-04-23 14:56 47.59240 18.04649 36071 ft 468 kts 197°
2026-04-23 14:56 47.53051 18.01665 36073 ft 468 kts 197°
2026-04-23 14:57 47.46862 17.98690 36077 ft 468 kts 197°
2026-04-23 14:57 47.40670 17.95710 36071 ft 468 kts 197°
2026-04-23 14:58 47.34485 17.92743 36080 ft 468 kts 197°
2026-04-23 14:58 47.28293 17.89790 36079 ft 468 kts 197°
2026-04-23 14:59 47.22100 17.86838 36081 ft 468 kts 197°
2026-04-23 14:59 47.15909 17.83887 36082 ft 468 kts 197°
2026-04-23 15:00 47.09718 17.80946 36079 ft 468 kts 197°
2026-04-23 15:00 47.03517 17.78018 36082 ft 468 kts 197°
2026-04-23 15:01 46.97322 17.75095 36089 ft 467 kts 197°
2026-04-23 15:01 46.91134 17.72180 36096 ft 467 kts 197°
2026-04-23 15:02 46.84955 17.69271 36090 ft 466 kts 197°
2026-04-23 15:02 46.78821 17.66394 36104 ft 466 kts 197°
2026-04-23 15:03 46.72660 17.63520 36107 ft 465 kts 197°
2026-04-23 15:03 46.66505 17.60649 36107 ft 464 kts 197°
2026-04-23 15:04 46.60354 17.57778 36111 ft 464 kts 197°
2026-04-23 15:04 46.54210 17.54931 36109 ft 463 kts 197°
2026-04-23 15:05 46.48071 17.52090 36108 ft 463 kts 197°
2026-04-23 15:05 46.41932 17.49243 36106 ft 463 kts 197°
2026-04-23 15:06 46.35796 17.46419 36106 ft 463 kts 197°
2026-04-23 15:06 46.29659 17.43600 36101 ft 463 kts 197°
2026-04-23 15:07 46.23523 17.40790 36098 ft 463 kts 197°
2026-04-23 15:07 46.17383 17.37981 36117 ft 463 kts 197°
2026-04-23 15:08 46.11246 17.35182 36115 ft 462 kts 197°
2026-04-23 15:09 46.02088 17.31019 36109 ft 462 kts 197°
2026-04-23 15:09 45.95980 17.28116 36107 ft 462 kts 199°
2026-04-23 15:10 45.90991 17.25348 36103 ft 462 kts 201°
2026-04-23 15:10 45.84025 17.21277 36102 ft 462 kts 201°
2026-04-23 15:11 45.78045 17.17890 36103 ft 462 kts 200°
2026-04-23 15:11 45.72047 17.14590 36105 ft 462 kts 200°
2026-04-23 15:12 45.66048 17.11301 36107 ft 462 kts 200°
2026-04-23 15:12 45.60051 17.08009 36105 ft 461 kts 200°
2026-04-23 15:13 45.54063 17.04722 36099 ft 461 kts 200°
2026-04-23 15:13 45.48075 17.01433 36097 ft 461 kts 200°
2026-04-23 15:14 45.42088 16.98164 36101 ft 461 kts 200°
2026-04-23 15:14 45.36095 16.94896 36103 ft 461 kts 200°
2026-04-23 15:15 45.30104 16.91630 36111 ft 461 kts 200°
2026-04-23 15:15 45.24107 16.88367 36101 ft 462 kts 200°
2026-04-23 15:16 45.18102 16.85117 36098 ft 462 kts 200°
2026-04-23 15:16 45.12088 16.81868 36102 ft 463 kts 200°
2026-04-23 15:17 45.06066 16.78619 36100 ft 463 kts 200°
2026-04-23 15:17 45.00034 16.75371 36107 ft 464 kts 200°
2026-04-23 15:18 44.93999 16.72119 36107 ft 465 kts 200°
2026-04-23 15:18 44.87992 16.68893 36110 ft 465 kts 200°
2026-04-23 15:19 44.81931 16.65670 36112 ft 466 kts 199°
2026-04-23 15:19 44.75866 16.62444 36115 ft 466 kts 200°
2026-04-23 15:20 44.70778 16.59734 36119 ft 467 kts 199°
2026-04-23 15:20 44.63711 16.55980 36120 ft 467 kts 199°
2026-04-23 15:21 44.58616 16.53283 36124 ft 467 kts 199°
2026-04-23 15:21 44.52579 16.50081 36127 ft 466 kts 199°
2026-04-23 15:22 44.46513 16.46872 36130 ft 465 kts 199°
2026-04-23 15:22 44.40416 16.43665 36128 ft 464 kts 199°
2026-04-23 15:23 44.34377 16.40486 36128 ft 463 kts 199°
2026-04-23 15:23 44.28345 16.37329 36127 ft 462 kts 199°
2026-04-23 15:24 44.22326 16.34186 36122 ft 462 kts 199°
2026-04-23 15:24 44.16343 16.31063 36119 ft 462 kts 199°
2026-04-23 15:25 44.10344 16.27872 36113 ft 461 kts 200°
2026-04-23 15:25 44.04388 16.24551 36108 ft 461 kts 201°
2026-04-23 15:26 43.98442 16.21224 36099 ft 461 kts 200°
2026-04-23 15:26 43.92472 16.17931 36091 ft 462 kts 200°
2026-04-23 15:27 43.86492 16.14664 36082 ft 462 kts 200°
2026-04-23 15:27 43.80505 16.11403 36081 ft 463 kts 200°
2026-04-23 15:28 43.74508 16.08133 36078 ft 464 kts 200°
2026-04-23 15:28 43.68502 16.04859 36083 ft 464 kts 200°
2026-04-23 15:29 43.62490 16.01585 36088 ft 465 kts 200°
2026-04-23 15:29 43.56474 15.98322 36081 ft 465 kts 200°
2026-04-23 15:30 43.50440 15.95055 36078 ft 466 kts 200°
2026-04-23 15:30 43.44388 15.91795 36102 ft 468 kts 199°
2026-04-23 15:31 43.38316 15.88527 36101 ft 469 kts 199°
2026-04-23 15:31 43.32237 15.85248 36104 ft 470 kts 199°
2026-04-23 15:32 43.26186 15.82000 36115 ft 470 kts 199°
2026-04-23 15:32 43.20092 15.78746 36119 ft 470 kts 199°
2026-04-23 15:33 43.13992 15.75486 36122 ft 470 kts 199°
2026-04-23 15:33 43.07895 15.72237 36132 ft 470 kts 199°
2026-04-23 15:34 43.01809 15.69001 36137 ft 469 kts 199°
2026-04-23 15:34 42.95723 15.65778 36137 ft 469 kts 199°
2026-04-23 15:35 42.89638 15.62565 36135 ft 469 kts 199°
2026-04-23 15:35 42.83564 15.59346 36137 ft 468 kts 199°
2026-04-23 15:36 42.77486 15.56138 36139 ft 468 kts 199°
2026-04-23 15:36 42.71405 15.52938 36147 ft 469 kts 198°
2026-04-23 15:37 42.65322 15.49735 36150 ft 469 kts 198°
2026-04-23 15:37 42.59236 15.46547 36147 ft 469 kts 198°
2026-04-23 15:38 42.53153 15.43358 36161 ft 469 kts 198°
2026-04-23 15:38 42.47105 15.40211 36160 ft 468 kts 198°
2026-04-23 15:39 42.41024 15.37051 36150 ft 468 kts 198°
2026-04-23 15:39 42.34941 15.33884 36168 ft 468 kts 198°
2026-04-23 15:40 42.28862 15.30727 36168 ft 468 kts 198°
2026-04-23 15:40 42.22778 15.27585 36149 ft 468 kts 198°
2026-04-23 15:41 42.16698 15.24452 36157 ft 468 kts 198°
2026-04-23 15:41 42.10619 15.21319 36163 ft 468 kts 198°
2026-04-23 15:42 42.04541 15.18187 36155 ft 468 kts 198°
2026-04-23 15:42 41.98463 15.15063 36161 ft 468 kts 198°
2026-04-23 15:43 41.92377 15.11947 36152 ft 468 kts 198°
2026-04-23 15:43 41.86284 15.08841 36151 ft 469 kts 198°
2026-04-23 15:44 41.80187 15.05734 36153 ft 469 kts 198°
2026-04-23 15:44 41.74131 15.02652 36151 ft 469 kts 198°
2026-04-23 15:45 41.68030 14.99552 36145 ft 469 kts 198°
2026-04-23 15:45 41.61934 14.96462 36162 ft 469 kts 198°
2026-04-23 15:46 41.55833 14.93368 36146 ft 469 kts 198°
2026-04-23 15:46 41.49716 14.90277 36129 ft 470 kts 198°
2026-04-23 15:47 41.43598 14.87196 36130 ft 470 kts 198°
2026-04-23 15:47 41.37468 14.84105 36125 ft 471 kts 199°
2026-04-23 15:48 41.31325 14.81053 36116 ft 471 kts 195°
2026-04-23 15:48 41.24967 14.79109 36116 ft 469 kts 189°
2026-04-23 15:49 41.18578 14.77342 36128 ft 469 kts 189°
2026-04-23 15:49 41.12199 14.75572 36124 ft 469 kts 189°
2026-04-23 15:50 41.05814 14.73809 36117 ft 469 kts 189°
2026-04-23 15:50 40.99431 14.72051 36111 ft 469 kts 190°
2026-04-23 15:51 40.93042 14.70303 36110 ft 469 kts 190°
2026-04-23 15:51 40.86655 14.68540 36105 ft 469 kts 190°
2026-04-23 15:52 40.80306 14.66795 36109 ft 469 kts 191°
2026-04-23 15:52 40.73907 14.65048 36092 ft 470 kts 191°
2026-04-23 15:53 40.67496 14.63305 36095 ft 471 kts 191°
2026-04-23 15:53 40.61078 14.61562 36095 ft 471 kts 191°
2026-04-23 15:54 40.54647 14.59813 36082 ft 473 kts 191°
2026-04-23 15:54 40.48204 14.58060 36078 ft 474 kts 191°
2026-04-23 15:55 40.41746 14.56310 36088 ft 474 kts 191°
2026-04-23 15:55 40.35285 14.54563 36094 ft 474 kts 191°
2026-04-23 15:56 40.28827 14.52823 36093 ft 474 kts 191°
2026-04-23 15:56 40.22372 14.51084 36098 ft 473 kts 191°
2026-04-23 15:57 40.15925 14.49349 36107 ft 473 kts 192°
2026-04-23 15:57 40.09481 14.47629 36111 ft 472 kts 192°
2026-04-23 15:58 40.03049 14.45911 36109 ft 472 kts 192°
2026-04-23 15:58 39.96622 14.44191 36105 ft 471 kts 193°
2026-04-23 15:59 39.90198 14.42477 36104 ft 471 kts 193°
2026-04-23 15:59 39.83778 14.40762 36105 ft 471 kts 193°
2026-04-23 16:00 39.77362 14.39051 36097 ft 471 kts 193°
2026-04-23 16:00 39.70984 14.37360 36097 ft 471 kts 193°
2026-04-23 16:01 39.64564 14.35675 36096 ft 471 kts 193°
2026-04-23 16:01 39.58150 14.33984 36093 ft 471 kts 193°
2026-04-23 16:02 39.51734 14.32288 36104 ft 470 kts 193°
2026-04-23 16:02 39.45334 14.30604 36109 ft 469 kts 193°
2026-04-23 16:03 39.38944 14.28933 36105 ft 469 kts 193°
2026-04-23 16:03 39.32539 14.27337 36099 ft 470 kts 189°
2026-04-23 16:04 39.25991 14.27545 36084 ft 474 kts 172°
2026-04-23 16:04 39.19468 14.28839 36085 ft 474 kts 172°
2026-04-23 16:05 39.14042 14.29895 36074 ft 475 kts 173°
2026-04-23 16:05 39.06409 14.31372 36087 ft 475 kts 174°
2026-04-23 16:06 38.99876 14.32639 36091 ft 474 kts 174°
2026-04-23 16:06 38.93348 14.33905 36097 ft 474 kts 174°
2026-04-23 16:07 38.86815 14.35167 35610 ft 478 kts 174°
2026-04-23 16:07 38.83497 14.35804 34826 ft 482 kts 174°
2026-04-23 16:07 38.80186 14.36439 34279 ft 480 kts 174°
2026-04-23 16:07 38.76886 14.37073 33637 ft 479 kts 174°
2026-04-23 16:08 38.73604 14.37708 33074 ft 475 kts 174°
2026-04-23 16:08 38.70345 14.38341 32490 ft 472 kts 174°
2026-04-23 16:08 38.67106 14.38970 31913 ft 470 kts 176°
2026-04-23 16:08 38.63885 14.39596 31377 ft 467 kts 177°
2026-04-23 16:09 38.60683 14.40212 30828 ft 464 kts 177°
2026-04-23 16:09 38.57539 14.40812 30288 ft 462 kts 178°
2026-04-23 16:09 38.54371 14.41413 29712 ft 459 kts 178°
2026-04-23 16:09 38.51232 14.42008 29212 ft 454 kts 177°
2026-04-23 16:10 38.48126 14.42598 28708 ft 449 kts 177°
2026-04-23 16:10 38.45056 14.43185 28189 ft 444 kts 178°
2026-04-23 16:10 38.42018 14.43768 27731 ft 439 kts 179°
2026-04-23 16:10 38.39983 14.44158 27395 ft 436 kts 179°
2026-04-23 16:11 38.36033 14.44914 26767 ft 431 kts 178°
2026-04-23 16:11 38.33105 14.45768 26313 ft 434 kts 167°
2026-04-23 16:11 38.30308 14.47249 25851 ft 436 kts 160°
2026-04-23 16:11 38.27572 14.48880 25363 ft 433 kts 159°
2026-04-23 16:12 38.25736 14.49974 25036 ft 431 kts 159°
2026-04-23 16:12 38.23026 14.51589 24534 ft 429 kts 159°
2026-04-23 16:12 38.20325 14.53195 24000 ft 427 kts 161°
2026-04-23 16:12 38.17638 14.54788 23511 ft 426 kts 161°
2026-04-23 16:13 38.14962 14.56371 22976 ft 423 kts 161°
2026-04-23 16:13 38.09661 14.59506 22007 ft 418 kts 160°
2026-04-23 16:13 38.07034 14.61056 21530 ft 415 kts 160°
2026-04-23 16:14 38.04427 14.62591 21144 ft 411 kts 160°
2026-04-23 16:14 38.01836 14.64114 20691 ft 408 kts 160°
2026-04-23 16:14 37.99314 14.65596 20377 ft 403 kts 160°
2026-04-23 16:14 37.96775 14.67088 19951 ft 400 kts 159°
2026-04-23 16:15 37.94205 14.68505 19265 ft 394 kts 166°
2026-04-23 16:15 37.91619 14.69301 18738 ft 382 kts 178°
2026-04-23 16:15 37.88994 14.69311 18142 ft 363 kts 195°
2026-04-23 16:15 37.86656 14.68455 17647 ft 339 kts 212°
2026-04-23 16:16 37.84755 14.66944 17204 ft 319 kts 228°
2026-04-23 16:16 37.83294 14.64906 16804 ft 309 kts 242°
2026-04-23 16:16 37.82289 14.62552 16395 ft 303 kts 250°
2026-04-23 16:16 37.81387 14.60149 15997 ft 302 kts 250°
2026-04-23 16:17 37.80479 14.57751 15590 ft 302 kts 250°
2026-04-23 16:17 37.79568 14.55357 15200 ft 302 kts 250°
2026-04-23 16:17 37.78654 14.52957 14801 ft 303 kts 249°
2026-04-23 16:17 37.77724 14.50516 14389 ft 305 kts 249°
2026-04-23 16:18 37.76687 14.48210 13999 ft 311 kts 236°
2026-04-23 16:18 37.75009 14.46371 13526 ft 323 kts 214°
2026-04-23 16:18 37.72885 14.45456 13110 ft 334 kts 192°
2026-04-23 16:18 37.70538 14.45497 12670 ft 339 kts 179°
2026-04-23 16:19 37.68189 14.45755 12233 ft 339 kts 178°
2026-04-23 16:19 37.65855 14.46029 12007 ft 332 kts 178°
2026-04-23 16:19 37.63627 14.46299 11859 ft 311 kts 178°
2026-04-23 16:19 37.61533 14.46329 11627 ft 295 kts 192°
2026-04-23 16:20 37.59542 14.45892 11379 ft 289 kts 195°
2026-04-23 16:20 37.57561 14.45431 10960 ft 286 kts 195°
2026-04-23 16:20 37.55643 14.44992 10711 ft 273 kts 195°
2026-04-23 16:20 37.53789 14.44569 10299 ft 269 kts 195°
2026-04-23 16:21 37.51966 14.44159 10089 ft 266 kts 192°
2026-04-23 16:21 37.50094 14.44143 9835 ft 273 kts 177°
2026-04-23 16:21 37.48204 14.44409 9458 ft 273 kts 176°
2026-04-23 16:21 37.46323 14.44681 9116 ft 272 kts 176°
2026-04-23 16:22 37.44448 14.44982 8785 ft 272 kts 170°
2026-04-23 16:22 37.42776 14.46045 8450 ft 273 kts 135°
2026-04-23 16:22 37.41817 14.48055 8111 ft 269 kts 101°
2026-04-23 16:22 37.41846 14.50339 7790 ft 260 kts 72°
2026-04-23 16:23 37.42242 14.52545 7472 ft 258 kts 78°
2026-04-23 16:23 37.42446 14.54784 7155 ft 257 kts 82°
2026-04-23 16:23 37.42581 14.57018 6853 ft 255 kts 83°
2026-04-23 16:23 37.42711 14.59245 6510 ft 255 kts 83°
2026-04-23 16:24 37.42855 14.61458 6198 ft 252 kts 82°
2026-04-23 16:24 37.43015 14.63643 5911 ft 249 kts 82°
2026-04-23 16:24 37.43186 14.65792 5628 ft 245 kts 81°
2026-04-23 16:24 37.43362 14.67905 5356 ft 241 kts 81°
2026-04-23 16:25 37.43540 14.69975 5078 ft 233 kts 81°
2026-04-23 16:25 37.43710 14.71951 4828 ft 229 kts 81°
2026-04-23 16:25 37.43884 14.73954 4563 ft 226 kts 81°
2026-04-23 16:25 37.44051 14.75873 4312 ft 222 kts 81°
2026-04-23 16:26 37.44215 14.77789 4058 ft 219 kts 81°
2026-04-23 16:26 37.44373 14.79678 3823 ft 215 kts 81°
2026-04-23 16:26 37.44532 14.81531 3595 ft 208 kts 82°
2026-04-23 16:26 37.44682 14.83277 3478 ft 195 kts 83°
2026-04-23 16:27 37.44826 14.84947 3267 ft 190 kts 82°
2026-04-23 16:27 37.44968 14.86588 3030 ft 188 kts 83°
2026-04-23 16:27 37.45108 14.88207 2794 ft 183 kts 83°
2026-04-23 16:27 37.45242 14.89772 2536 ft 178 kts 82°
2026-04-23 16:28 37.45373 14.91301 2289 ft 175 kts 83°
2026-04-23 16:28 37.45501 14.92792 2067 ft 166 kts 84°
2026-04-23 16:28 37.45621 14.94185 1850 ft 153 kts 88°
2026-04-23 16:28 37.45731 14.95464 1645 ft 143 kts 86°
2026-04-23 16:29 37.45835 14.96682 1438 ft 138 kts 85°
2026-04-23 16:29 37.45936 14.97882 1260 ft 138 kts 87°
2026-04-23 16:29 37.46038 14.99081 1069 ft 138 kts 86°
2026-04-23 16:29 37.46140 15.00275 895 ft 136 kts 85°
2026-04-23 16:30 37.46240 15.01463 712 ft 138 kts 85°
2026-04-23 16:30 37.46337 15.02664 540 ft 138 kts 84°
2026-04-23 16:30 37.46439 15.03865 348 ft 138 kts 85°
2026-04-23 16:30 37.46540 15.05058 155 ft 137 kts 84°
2026-04-23 16:31 37.46643 15.06211 52 ft 119 kts 85°
2026-04-23 16:31 37.46699 15.06875 52 ft 27 kts 83°
2026-04-23 16:31 37.46747 15.06930 52 ft 10 kts 348°
2026-04-23 16:31 37.46807 15.06898 51 ft 9 kts 336°
2026-04-23 16:32 37.46832 15.06884 51 ft 0 kts 336°
2026-04-23 16:32 37.46843 15.06878 50 ft 3 kts 334°
2026-04-23 16:32 37.46859 15.06830 51 ft 13 kts 270°
2026-04-23 16:32 37.46852 15.06724 51 ft 11 kts 264°
2026-04-23 16:33 37.46841 15.06605 51 ft 16 kts 263°
2026-04-23 16:33 37.46829 15.06474 51 ft 14 kts 264°
2026-04-23 16:33 37.46841 15.06434 48 ft 3 kts 351°
2026-04-23 16:33 37.46859 15.06433 51 ft 4 kts 358°
2026-04-23 16:34 37.46897 15.06443 51 ft 5 kts 19°
2026-04-23 16:34 37.46927 15.06457 48 ft 4 kts 20°
2026-04-23 16:34 37.46949 15.06467 50 ft 3 kts 19°
2026-04-23 16:34 37.46958 15.06471 51 ft 0 kts 19°
2026-04-23 16:35 37.46961 15.06472 51 ft 1 kts 19°
2026-04-23 16:35 37.46964 15.06473 51 ft 0 kts 19°